Adana Incirlik AFB, Turkey

7:03 AM +03 on April 30, 2017 (GMT +0300)
Incirlik Air Base

Weather History for LTAG - November, 2012

Change the Weather History Date:

Wednesday, November 21, 2012

  Actual Average Record
Temperature  
Mean Temperature 59 °F -  
Max Temperature 71 °F 65 °F 82 °F (2002)
Min Temperature 47 °F 47 °F 41 °F (2001)
Degree Days  
Heating Degree Days 6    
Growing Degree Days 9 (Base 50)    
Moisture  
Dew Point 48 °F    
Average Humidity 69    
Maximum Humidity 94    
Minimum Humidity 28    
Precipitation  
Precipitation 0.00 in - - ()
Sea Level Pressure  
Sea Level Pressure 30.02 in    
Wind  
Wind Speed 5 mph ()    
Max Wind Speed 10 mph    
Max Gust Speed -    
Visibility 6.2 miles    
Events      
Averages and records for this station are not official NWS values.
T = Trace of Precipitation, MM = Missing Value Source: Averaged Metar Reports

Daily Weather History Graph

Daily Weather History Graph

Search for Another Location

Airport or City:

Trip Planner

Search our weather history database for the weather conditions in past years. The results will help you decide how hot, cold, wet, or windy it might be!

Date:

Astronomy

Nov. 21, 2012 Rise Set
Actual Time 6:23 AM EET 4:24 PM EET
Civil Twilight 5:55 AM EET 4:53 PM EET
Nautical Twilight 5:23 AM EET 5:24 PM EET
Astronomical Twilight 4:52 AM EET 5:55 PM EET
Moon 12:22 PM EET (11/21) No Moon Set
Length of Visible Light 10h 57m
Length of Day
10h 01m
First Quarter, 58% of the Moon is Illuminated
Nov 21
First Quarter
Nov 28
Full
Dec 6
Last Quarter
Dec 13
New
Dec 20
First Quarter

Hourly Weather History & Observations

Time (EET) Temp. Dew Point Humidity Pressure Visibility Wind Dir Wind Speed Gust Speed Precip Events Conditions
12:20 AM 50.0 °F 48.2 °F 94% 30.04 in 6.2 mi NE 3.5 mph - N/A   Scattered Clouds
12:50 AM 50.0 °F 48.2 °F 94% 30.04 in 6.2 mi NNE 3.5 mph - N/A   Scattered Clouds
1:20 AM 50.0 °F 48.2 °F 94% 30.04 in 6.2 mi North 4.6 mph - N/A   Scattered Clouds
1:50 AM 50.0 °F 46.4 °F 87% 30.04 in 6.2 mi NE 6.9 mph - N/A   Scattered Clouds
2:00 AM 49 °F 46 °F 87% 30.04 in 6 mi NE 6.9 mph - -   Scattered Clouds
2:50 AM 51.8 °F 48.2 °F 88% 30.04 in 6.2 mi North 3.5 mph - N/A   Scattered Clouds
3:20 AM 51.8 °F 46.4 °F 82% 30.04 in 6.2 mi North 3.5 mph - N/A   Scattered Clouds
3:50 AM 51.8 °F 46.4 °F 82% 30.04 in 6.2 mi North 6.9 mph - N/A   Scattered Clouds
4:20 AM 50.0 °F 46.4 °F 87% 30.04 in 6.2 mi North 4.6 mph - N/A   Scattered Clouds
4:50 AM 50.0 °F 46.4 °F 87% 30.04 in 6.2 mi NNW 2.3 mph - N/A   Scattered Clouds
5:20 AM 50.0 °F 46.4 °F 87% 30.04 in 6.2 mi North 8.1 mph - N/A   Scattered Clouds
5:50 AM 50.0 °F 46.4 °F 87% 30.04 in 6.2 mi NW 3.5 mph - N/A   Scattered Clouds
6:20 AM 50.0 °F 46.4 °F 87% 30.04 in 6.2 mi North 4.6 mph - N/A   Scattered Clouds
6:50 AM 48.2 °F 46.4 °F 93% 30.04 in 6.2 mi North 6.9 mph - N/A   Scattered Clouds
7:20 AM 51.8 °F 48.2 °F 88% 30.04 in 6.2 mi North 9.2 mph - N/A   Scattered Clouds
7:50 AM 55.4 °F 48.2 °F 77% 30.06 in 6.2 mi North 9.2 mph - N/A   Scattered Clouds
8:00 AM 55 °F 49 °F 73% 30.07 in 6 mi North 9.2 mph - -   Scattered Clouds
8:20 AM 57.2 °F 50.0 °F 77% 30.06 in 6.2 mi North 4.6 mph - N/A   Scattered Clouds
8:50 AM 60.8 °F 50.0 °F 68% 30.06 in 6.2 mi NNW 2.3 mph - N/A   Scattered Clouds
9:20 AM 64.4 °F 48.2 °F 56% 30.06 in 6.2 mi NNE 6.9 mph - N/A   Scattered Clouds
9:50 AM 66.2 °F 48.2 °F 52% 30.06 in 6.2 mi ENE 1.2 mph - N/A   Partly Cloudy
10:20 AM 68.0 °F 48.2 °F 49% 30.04 in 6.2 mi SE 2.3 mph - N/A   Partly Cloudy
10:50 AM 68.0 °F 48.2 °F 49% 30.04 in 6.2 mi SSE 2.3 mph - N/A   Partly Cloudy
11:20 AM 68.0 °F 48.2 °F 49% 30.04 in 6.2 mi SSW 2.3 mph - N/A   Partly Cloudy
11:50 AM 69.8 °F 48.2 °F 46% 30.01 in 6.2 mi SSW 2.3 mph - N/A   Partly Cloudy
12:20 PM 69.8 °F 48.2 °F 46% 30.01 in 6.2 mi South 2.3 mph - N/A   Partly Cloudy
12:50 PM 69.8 °F 44.6 °F 40% 30.01 in 6.2 mi SSW 3.5 mph - N/A   Partly Cloudy
1:20 PM 71.6 °F 46.4 °F 41% 30.01 in - SW 3.5 mph - N/A   Clear
1:50 PM 69.8 °F 44.6 °F 40% 30.01 in 6.2 mi SSW 1.2 mph - N/A   Partly Cloudy
2:00 PM 71 °F 45 °F 28% 30.00 in 6 mi SSW 1.2 mph - -   Scattered Clouds
2:20 PM 69.8 °F 46.4 °F 43% 30.01 in 6.2 mi WSW 2.3 mph - N/A   Partly Cloudy
2:50 PM 71.6 °F 46.4 °F 41% 30.01 in 6.2 mi WSW 2.3 mph - N/A   Partly Cloudy
3:20 PM 68.0 °F 48.2 °F 49% 30.01 in 6.2 mi SW 2.3 mph - N/A   Partly Cloudy
3:50 PM 68.0 °F 48.2 °F 49% 29.98 in 6.2 mi SW 4.6 mph - N/A   Partly Cloudy
4:20 PM 66.2 °F 46.4 °F 49% 29.98 in 6.2 mi SSW 2.3 mph - N/A   Partly Cloudy
4:50 PM 66.2 °F 46.4 °F 49% 29.98 in 6.2 mi SSW 2.3 mph - N/A   Partly Cloudy
5:20 PM 62.6 °F 50.0 °F 63% 29.98 in 6.2 mi North 5.8 mph - N/A   Partly Cloudy
5:50 PM 57.2 °F 50.0 °F 77% 29.98 in 6.2 mi North 8.1 mph - N/A   Partly Cloudy
6:20 PM 57.2 °F 50.0 °F 77% 29.98 in 6.2 mi North 8.1 mph - N/A   Partly Cloudy
6:50 PM 55.4 °F 50.0 °F 82% 29.98 in 6.2 mi North 9.2 mph - N/A   Partly Cloudy
7:20 PM 55.4 °F 50.0 °F 82% 29.98 in 6.2 mi North 9.2 mph - N/A   Partly Cloudy
7:50 PM 55.4 °F 50.0 °F 82% 29.98 in 6.2 mi North 8.1 mph - N/A   Partly Cloudy
8:00 PM 56 °F 49 °F 71% 30.00 in 6 mi North 8.1 mph - -   Scattered Clouds
8:20 PM 55.4 °F 48.2 °F 77% 29.98 in 6.2 mi North 8.1 mph - N/A   Partly Cloudy
8:50 PM 55.4 °F 48.2 °F 77% 29.98 in 6.2 mi North 8.1 mph - N/A   Partly Cloudy
9:20 PM 55.4 °F 48.2 °F 77% 29.98 in 6.2 mi North 10.4 mph - N/A   Scattered Clouds
9:50 PM 55.4 °F 48.2 °F 77% 29.98 in 6.2 mi North 9.2 mph - N/A   Scattered Clouds
10:20 PM 55.4 °F 48.2 °F 77% 29.98 in 6.2 mi North 10.4 mph - N/A   Scattered Clouds
10:50 PM 55.4 °F 48.2 °F 77% 29.98 in 6.2 mi North 9.2 mph - N/A   Scattered Clouds
11:20 PM 57.2 °F 48.2 °F 72% 29.98 in 6.2 mi North 9.2 mph - N/A   Scattered Clouds
11:50 PM 57.2 °F 48.2 °F 72% 29.98 in 6.2 mi North 8.1 mph - N/A   Scattered Clouds